Regional Weather Roundup
Issued by NWS Kansas City/Pleasant Hill, MO

Home | Current Version | Previous Version | Text Only | Print | Product List | Glossary On
Versions: 1 2 3 4 5 6 7 8 9 10 11 12 13 14 15 16 17 18 19 20 21 22 23 24 25 26 27 28 29 30 31 32 33 34 35 36 37 38 39 40 41 42 43 44 45 46 47 48 49 50
000
ASUS43 KEAX 120510
RWREAX

WEATHER ROUNDUP FOR EASTERN KANSAS AND NORTHWEST MISSOURI
NATIONAL WEATHER SERVICE KANSAS CITY/PLEASANT HILL MO
1100 PM CST THU FEB 11 2016

KSZ040-057-103>105-MOZ028-029-037-043-120600-
...KANSAS CITY METROPOLITAN AREA...

CITY           SKY/WX    TMP DP  RH WIND       PRES   REMARKS
K.C. INTL      PTCLDY    28  20  71 E7        30.17F WCI  21
K.C. DOWNTOWN  PTCLDY    31  21  66 E6        30.18F WCI  25
LEES SUMMIT    PTCLDY    29  20  69 E6        30.17F WCI  23
OLATHE - IXD   PTCLDY    30  22  72 SE5       30.16F WCI  25
OLATHE - OJC   MOCLDY    30  21  69 SE5       30.16F WCI  25
LAWRENCE       PTCLDY    29  22  75 CALM      30.17F

$$

MOZ001>008-011>017-020>025-030>033-038>040-044>046-053-054-120600-
...NORTHERN AND CENTRAL MISSOURI...

CITY           SKY/WX    TMP DP  RH WIND       PRES   REMARKS
ST. JOSEPH     CLOUDY    31  20  63 E5        30.20R WCI  26
MOSBY          PTCLDY    30  21  69 E3        30.19F
WARRENSBURG    CLOUDY    30  21  69 NE5       30.19F WCI  25
WHITEMAN AFB   MOCLDY    29  21  72 NE1       30.18S
CLINTON          N/A     34  27  75 N8        30.21R WCI  27
SEDALIA        PTCLDY    30  21  69 E6        30.19R WCI  24
WARSAW         NOT AVBL
CHILLICOTHE      N/A     27  15  61 E5        30.22F WCI  22
KIRKSVILLE     CLOUDY    23  12  62 E6        30.23S WCI  16

$$

MOZ041-047>049-056>058-063>065-088>090-097-120600-
...EASTERN AND SOUTHERN MISSOURI...

CITY           SKY/WX    TMP DP  RH WIND       PRES   REMARKS
ST. LOUIS INTL CLOUDY    29  13  51 SE5       30.27S WCI  24
SPIRIT OF STL  CLOUDY    28  12  51 SE3       30.25F
COLUMBIA       LGT SNOW  26  23  88 E8        30.21S FOG     WCI  18
JEFFERSON CITY FLURRIES  27  23  85 E8        30.22F WCI  19
ROLLA          CLOUDY    29  19  66 E8        30.18S WCI  21
OSAGE BEACH    CLOUDY    34  18  51 SE13      30.13F WCI  25
SPRINGFIELD    CLOUDY    37  23  56 SW5       30.16S WCI  33
BRANSON        MOCLDY    37  19  48 SE5       30.16S WCI  34
JOPLIN         PTCLDY    34  22  61 N6        30.20R WCI  29
WEST PLAINS    CLOUDY    33  19  56 S6        30.18S WCI  28

$$

IAZ060-094-KSZ022-034>040-054-083-096-NEZ052-066-093-120600-
...KANSAS...SOUTHEAST NEBRASKA AND IOWA...

CITY           SKY/WX    TMP DP  RH WIND       PRES   REMARKS
TOPEKA         CLOUDY    34  22  61 S3        30.16F
MANHATTAN      CLEAR     29  24  82 CALM      30.17S
EMPORIA        CLOUDY    28  22  78 S10       30.16F WCI  19
CHANUTE        CLEAR     28  23  81 S5        30.19F WCI  23
WICHITA        PTCLDY    35  26  69 CALM      30.18R
OMAHA          CLOUDY    25  19  78 NE3       30.22S
LINCOLN        CLOUDY    29  24  82 E5        30.20S WCI  24
FALLS CITY     CLOUDY    30  23  75 CALM      30.18S
LAMONI         LGT SNOW  21  17  84 E5        30.21S FOG     WCI  15
DES MOINES     FLURRIES  18  13  80 E5        30.24F WCI  11

$$




USA.gov is the U.S. government's official web portal to all federal, state and local government web resources and services.